[[{"header":{"parameterUnit":"m.s-1","parameterCategory":1,"la1":30.2991,"la2":30.254,"lo1":-89.0895,"lo2":-89.0444,"dy":0.0017,"dx":0.0017,"nx":28,"ny":28,"refTime":"2023-10-16T03:00:00:Z","depth":0,"parameterNumber":2,"parameterNumberName":"U-component_of_WINDS"},"data":[0,0,0,0,0,0,0,0,0,0,0,0,0,0,0,0,0,0,0,0,0,0,0,0,0,0,0,0,0,0,0,0,0,0,0,0,0,0,0,0,0,0,0,0,0,0,0,0,0,0,0,0,0,0,0,0,0,0,0.3133,0.3132,0,0.3039,0.3038,0.3037,0.3041,0.3043,0.3044,0.3045,0.2945,0.2941,0.2937,0,0,0,0,0,0,0,0,0,0,0,0,0,0.3314,0.331,0.3134,0.3132,0.3131,0.3039,0.3038,0.3037,0.3041,0.3043,0.3044,0.3046,0.2946,0.2942,0.2937,0,0,0,0,0,0,0,0,0,0,0,0,0,0.3229,0.3309,0.3134,0.3122,0.312,0.304,0.3038,0.3036,0.3041,0.3043,0.3045,0.3046,0.2948,0.2942,0.2936,0.286,0,0,0.2918,0.2916,0,0,0,0,0,0,0,0,0.3234,0.3222,0.3125,0.3123,0.3121,0.3054,0.3065,0.2977,0.304,0.3071,0.3045,0.3047,0.2979,0.2971,0.2949,0.2855,0.2851,0.2918,0.2914,0.2912,0.291,0,0,0,0,0,0,0,0.324,0.3226,0.3096,0.3124,0.3121,0.3121,0.3111,0.3048,0.3015,0.3068,0.3068,0.3057,0.2978,0.2954,0.2946,0.2849,0.2918,0.2913,0.2909,0.2907,0.2686,0.2684,0,0,0,0,0,0,0.3248,0.3231,0.3099,0.3093,0.3183,0.3116,0.3105,0.3073,0.3016,0.3009,0.3056,0.3058,0.2964,0.2953,0.2943,0.2848,0.2912,0.2906,0.2903,0.2689,0.2686,0.2683,0,0,0,0,0,0,0.3252,0.3237,0.3103,0.3162,0.3145,0.3111,0.3075,0.307,0.3046,0.3006,0.3,0.3037,0.2965,0.2951,0.288,0.2845,0.2904,0.2898,0.2691,0.2688,0.2685,0.2658,0,0,0,0,0,0,0.3258,0.3238,0.3209,0.3162,0.3142,0.3043,0.3073,0.3067,0.3037,0.3039,0.2987,0.2981,0.2965,0.2889,0.2874,0.2837,0.2894,0.2694,0.269,0.2686,0.2662,0.2654,0.2648,0,0,0,0,0,0.3264,0.3205,0.3208,0.3192,0.3106,0.3041,0.3029,0.3014,0.3034,0.3004,0.2978,0.2982,0.2852,0.2882,0.2865,0.2826,0.2697,0.2691,0.2686,0.2665,0.2656,0.2648,0,0,0,0,0,0,0.3248,0.3199,0.3201,0.3125,0.3087,0.3041,0.3003,0.3004,0.2959,0.2962,0.2944,0.2932,0.2861,0.2837,0.2871,0.2748,0.2776,0.2768,0.2766,0.2757,0.275,0.2756,0.2889,0,0,0,0,0,0.3236,0.3189,0.3148,0.3085,0.3066,0.3038,0.3009,0.3,0.296,0.2943,0.2912,0.2871,0.2821,0.2788,0.274,0.266,0.2647,0.2625,0.2617,0.2612,0.2603,0.2557,0.2546,0.2666,0.2666,0.2666,0,0,0.321,0.3177,0.3148,0.3081,0.305,0.3,0.3024,0.297,0.2932,0.2935,0.2865,0.2841,0.2795,0.2719,0.2683,0.2696,0.2568,0.2605,0.2601,0.2595,0.2551,0.254,0.253,0.2663,0.2663,0.2664,0,0,0.3136,0.3108,0.3052,0.3021,0.2975,0.2957,0.2943,0.2897,0.2882,0.2813,0.2813,0.2768,0.2682,0.2648,0.262,0.2534,0.2535,0.2519,0.248,0.2436,0.2426,0.2418,0.2385,0.2374,0.2512,0.2511,0.2511,0,0.3109,0.3035,0.3022,0.2968,0.2937,0.2939,0.2881,0.2851,0.2791,0.277,0.2786,0.2677,0.2646,0.2561,0.2541,0.2519,0.2501,0.2523,0.2429,0.242,0.2412,0.238,0.2368,0.251,0.251,0.251,0.251,0,0.3003,0.2951,0.2911,0.2854,0.2819,0.2763,0.2741,0.2707,0.2702,0.2682,0.2611,0.2574,0.2518,0.2498,0.2492,0.2411,0.2421,0.2433,0.246,0.2399,0.2369,0.2357,0.2507,0.2508,0.2508,0.2509,0,0,0.2914,0.2852,0.2837,0.2811,0.2761,0.272,0.2664,0.261,0.258,0.2539,0.249,0.2418,0.2429,0.2397,0.2388,0.2349,0.2281,0.2366,0.2364,0.2349,0.2188,0.2177,0.2163,0.2283,0.2281,0.2279,0.2191,0,0.2834,0.2735,0.2722,0.2634,0.2585,0.2586,0.2537,0.25,0.248,0.2435,0.2413,0.2361,0.2381,0.2361,0.2323,0.2297,0.2248,0.2304,0.2235,0.2233,0.2244,0.2148,0.2136,0.2055,0.2179,0.2178,0.2176,0,0.2726,0.2683,0.2589,0.2545,0.2524,0.2481,0.2429,0.2387,0.2345,0.2333,0.2298,0.2293,0.2234,0.2266,0.2183,0.2221,0.2193,0.2176,0.2172,0.2163,0.2199,0.2133,0.2029,0.2015,0.2158,0.2159,0.2161,0,0.2668,0.2586,0.252,0.2498,0.2445,0.2414,0.239,0.2351,0.2319,0.2274,0.2253,0.2202,0.2173,0.2134,0.2115,0.2141,0.2032,0.2063,0.2019,0.2019,0.1993,0.1994,0.188,0.198,0.198,0.198,0.198,0,0.2577,0.2519,0.2493,0.2451,0.2387,0.2373,0.2308,0.2286,0.2251,0.2204,0.2203,0.2159,0.2139,0.2091,0.2077,0.2009,0.1997,0.1984,0.198,0.1982,0.1984,0.1961,0.1965,0.1977,0.1978,0.1978,0.1979,0,0.25,0.248,0.2407,0.2364,0.2352,0.2306,0.2268,0.2227,0.2209,0.215,0.2135,0.2105,0.205,0.2028,0.196,0.195,0.1871,0.1873,0.1885,0.1883,0.1839,0.1842,0.1703,0.1683,0.1799,0.1798,0.1797,0,0.2442,0.2398,0.235,0.2319,0.2295,0.2246,0.2213,0.2198,0.2164,0.2113,0.2078,0.2023,0.1978,0.1889,0.186,0.1807,0.1806,0.1762,0.1798,0.1802,0.1802,0.1804,0.1799,0.1754,0.1752,0.1751,0.1751,0,0.2341,0.2333,0.2287,0.2237,0.2199,0.2159,0.212,0.2095,0.2073,0.2035,0.1979,0.1944,0.1875,0.1819,0.1765,0.174,0.174,0.174,0.1726,0.1726,0.1734,0.1727,0.1863,0.1742,0.1743,0.1744,0.1744,0.1745,0.2269,0.223,0.219,0.2138,0.2108,0.2071,0.2031,0.2007,0.196,0.1903,0.1897,0.1836,0.1795,0.1723,0.1695,0.1646,0.1658,0.1639,0.1633,0.1628,0.1624,0.1745,0.1637,0.1637,0.1637,0.1637,0.1638,0,0.2166,0.214,0.2093,0.2039,0.1998,0.2005,0.1963,0.1927,0.1874,0.1836,0.1792,0.1726,0.1672,0.164,0.1586,0.1553,0.1552,0.1539,0.1539,0.1533,0.1618,0.1634,0.154,0.154,0.154,0.154,0.154,0.154,0.2107,0.2039,0.2027,0.1944,0.1919,0.1859,0.1834,0.18,0.177,0.1697,0.1652,0.1632,0.1596,0.1539,0.149,0.1482,0.1461,0.1446,0.1438,0.1517,0.1527,0.1537,0.1551,0.1442,0.1442,0.1357,0.1357,0.1356]},{"header":{"parameterUnit":"m.s-1","parameterCategory":1,"la1":30.2991,"la2":30.254,"lo1":-89.0895,"lo2":-89.0444,"dy":0.0017,"dx":0.0017,"nx":28,"ny":28,"refTime":"2023-10-16T03:00:00:Z","depth":0,"parameterNumber":3,"parameterNumberName":"V-component_of_WINDS"},"data":[0,0,0,0,0,0,0,0,0,0,0,0,0,0,0,0,0,0,0,0,0,0,0,0,0,0,0,0,0,0,0,0,0,0,0,0,0,0,0,0,0,0,0,0,0,0,0,0,0,0,0,0,0,0,0,0,0,0,-4.1922,-4.1923,0,-4.2019,-4.202,-4.2022,-4.1969,-4.1967,-4.1964,-4.1962,-4.2057,-4.2061,-4.2066,0,0,0,0,0,0,0,0,0,0,0,0,0,-4.1685,-4.169,-4.1922,-4.1923,-4.1925,-4.2019,-4.2021,-4.2022,-4.197,-4.1967,-4.1964,-4.1961,-4.2055,-4.2061,-4.2067,0,0,0,0,0,0,0,0,0,0,0,0,0,-4.1786,-4.1692,-4.1922,-4.191,-4.191,-4.2019,-4.2021,-4.2022,-4.1971,-4.1967,-4.1963,-4.1959,-4.2053,-4.206,-4.2068,-4.2192,0,0,-4.209,-4.2094,0,0,0,0,0,0,0,0,-4.178,-4.1795,-4.1911,-4.1911,-4.1911,-4.1978,-4.1972,-4.2079,-4.1972,-4.1947,-4.1962,-4.1957,-4.2033,-4.2042,-4.2069,-4.2197,-4.2201,-4.2091,-4.2095,-4.2099,-4.2101,0,0,0,0,0,0,0,-4.1773,-4.179,-4.196,-4.1912,-4.1913,-4.1898,-4.1908,-4.1992,-4.2011,-4.1949,-4.1946,-4.1958,-4.2033,-4.2062,-4.2071,-4.2202,-4.2091,-4.2097,-4.2102,-4.2105,-4.2434,-4.2438,0,0,0,0,0,0,-4.1768,-4.1785,-4.1957,-4.1963,-4.1835,-4.1906,-4.1917,-4.1961,-4.201,-4.2014,-4.1961,-4.1955,-4.2051,-4.2062,-4.2074,-4.2221,-4.2099,-4.2106,-4.211,-4.243,-4.2435,-4.2439,0,0,0,0,0,0,-4.1763,-4.1784,-4.1953,-4.1873,-4.1894,-4.1914,-4.1964,-4.1965,-4.1994,-4.2019,-4.2022,-4.1988,-4.2048,-4.2063,-4.2163,-4.2224,-4.2109,-4.2116,-4.2425,-4.2431,-4.2437,-4.2518,0,0,0,0,0,0,-4.1756,-4.1782,-4.1831,-4.1875,-4.1898,-4.2043,-4.1968,-4.1969,-4.2007,-4.2,-4.2045,-4.2049,-4.2046,-4.2152,-4.217,-4.2232,-4.2122,-4.2419,-4.2428,-4.2435,-4.251,-4.2527,-4.2541,0,0,0,0,0,-4.1748,-4.185,-4.1834,-4.1855,-4.196,-4.2047,-4.206,-4.2057,-4.2013,-4.2061,-4.2077,-4.2047,-4.2215,-4.2163,-4.2183,-4.2248,-4.2415,-4.2425,-4.2435,-4.2503,-4.2524,-4.254,0,0,0,0,0,0,-4.1812,-4.1855,-4.1838,-4.1958,-4.1999,-4.2038,-4.2099,-4.2078,-4.2132,-4.2123,-4.2115,-4.2126,-4.2229,-4.2248,-4.219,-4.237,-4.2308,-4.2322,-4.2353,-4.2373,-4.2388,-4.238,-4.2128,0,0,0,0,0,-4.184,-4.1908,-4.1942,-4.2044,-4.2065,-4.2079,-4.2116,-4.211,-4.2152,-4.2169,-4.2192,-4.2232,-4.2294,-4.2334,-4.2392,-4.2513,-4.2521,-4.2567,-4.2583,-4.2595,-4.2607,-4.267,-4.269,-4.2471,-4.2471,-4.2471,0,0,-4.1898,-4.1931,-4.1974,-4.2057,-4.2088,-4.2157,-4.2094,-4.2169,-4.222,-4.218,-4.2275,-4.2294,-4.2338,-4.2448,-4.2498,-4.2467,-4.2669,-4.2607,-4.2617,-4.2622,-4.2682,-4.2703,-4.2721,-4.2478,-4.2476,-4.2475,0,0,-4.204,-4.2072,-4.216,-4.2192,-4.2241,-4.2249,-4.227,-4.2312,-4.2323,-4.2419,-4.2389,-4.2448,-4.2555,-4.2587,-4.2617,-4.2769,-4.2743,-4.2788,-4.2867,-4.2929,-4.2946,-4.2962,-4.3014,-4.3033,-4.28,-4.28,-4.28,0,-4.2106,-4.221,-4.2207,-4.2285,-4.2321,-4.2289,-4.2376,-4.2407,-4.2472,-4.2497,-4.2462,-4.2594,-4.2622,-4.2738,-4.2775,-4.2802,-4.2823,-4.2783,-4.2944,-4.296,-4.2974,-4.3024,-4.3044,-4.2805,-4.2805,-4.2804,-4.2804,0,-4.2288,-4.2361,-4.2425,-4.2489,-4.2533,-4.2615,-4.2622,-4.2666,-4.2656,-4.2667,-4.2763,-4.2796,-4.2859,-4.2886,-4.2877,-4.3,-4.298,-4.2945,-4.2883,-4.3,-4.3046,-4.3066,-4.2813,-4.2811,-4.2809,-4.2808,0,0,-4.2473,-4.2533,-4.2557,-4.2585,-4.2635,-4.269,-4.277,-4.2833,-4.287,-4.2915,-4.298,-4.3071,-4.3039,-4.3073,-4.3067,-4.3121,-4.3237,-4.3079,-4.308,-4.3106,-4.3373,-4.3398,-4.342,-4.322,-4.3224,-4.3227,-4.3369,0,-4.2616,-4.2758,-4.2756,-4.2886,-4.2951,-4.2921,-4.299,-4.3027,-4.3039,-4.3095,-4.3107,-4.3171,-4.3125,-4.3145,-4.3197,-4.3212,-4.329,-4.3202,-4.3279,-4.3281,-4.3268,-4.3445,-4.3472,-4.3605,-4.3387,-4.339,-4.3393,0,-4.2803,-4.2855,-4.2992,-4.3032,-4.3059,-4.3121,-4.3178,-4.3232,-4.3273,-4.3278,-4.3316,-4.3301,-4.3379,-4.3315,-4.3421,-4.3361,-4.3392,-4.3404,-4.3409,-4.3415,-4.3343,-4.3454,-4.3647,-4.3666,-4.3422,-4.3419,-4.3417,0,-4.2922,-4.3027,-4.3121,-4.3146,-4.3195,-4.3239,-4.3261,-4.3298,-4.3336,-4.3384,-4.3408,-4.3465,-4.3496,-4.3539,-4.3539,-4.3493,-4.3646,-4.3583,-4.365,-4.365,-4.3683,-4.3681,-4.3882,-4.3706,-4.3705,-4.3705,-4.3705,0,-4.3082,-4.3167,-4.3175,-4.3234,-4.3326,-4.3323,-4.3414,-4.3431,-4.3464,-4.3523,-4.3501,-4.3556,-4.3553,-4.3609,-4.3609,-4.3696,-4.371,-4.3715,-4.3713,-4.3716,-4.3716,-4.3736,-4.3726,-4.371,-4.3709,-4.3708,-4.3707,0,-4.3231,-4.3241,-4.3342,-4.338,-4.3391,-4.3457,-4.3489,-4.3543,-4.3552,-4.3628,-4.3645,-4.3659,-4.3724,-4.3728,-4.3802,-4.3802,-4.3907,-4.3896,-4.3894,-4.3892,-4.3958,-4.3952,-4.4179,-4.4207,-4.4013,-4.4015,-4.4017,0,-4.3332,-4.3397,-4.3441,-4.348,-4.3505,-4.3568,-4.3606,-4.3603,-4.3644,-4.3694,-4.3741,-4.3804,-4.3854,-4.3958,-4.3973,-4.4029,-4.4019,-4.4095,-4.4027,-4.4027,-4.4018,-4.4014,-4.4019,-4.4107,-4.4109,-4.4111,-4.4113,0,-4.351,-4.3511,-4.3568,-4.3626,-4.3672,-4.3718,-4.376,-4.3792,-4.3795,-4.3841,-4.3907,-4.3946,-4.4021,-4.4083,-4.4137,-4.4157,-4.4135,-4.4134,-4.4152,-4.4155,-4.415,-4.4152,-4.3928,-4.4128,-4.4127,-4.4126,-4.4125,-4.4124,-4.3637,-4.3692,-4.3732,-4.3795,-4.3827,-4.3866,-4.3919,-4.3935,-4.399,-4.4053,-4.4047,-4.412,-4.4157,-4.4228,-4.4252,-4.4308,-4.4282,-4.4309,-4.4315,-4.4322,-4.4328,-4.4143,-4.4318,-4.4317,-4.4317,-4.4316,-4.4316,0,-4.3813,-4.3836,-4.3895,-4.3955,-4.4004,-4.398,-4.4025,-4.4067,-4.4132,-4.4168,-4.4218,-4.4293,-4.4352,-4.4372,-4.4429,-4.4469,-4.446,-4.4484,-4.448,-4.4485,-4.4349,-4.4327,-4.449,-4.449,-4.449,-4.449,-4.449,-4.449,-4.391,-4.4001,-4.4007,-4.4112,-4.4135,-4.4207,-4.4234,-4.427,-4.4299,-4.4384,-4.4433,-4.4447,-4.4476,-4.4535,-4.4587,-4.4591,-4.4612,-4.4641,-4.464,-4.4512,-4.4495,-4.4478,-4.4457,-4.4646,-4.4646,-4.4772,-4.4773,-4.4774]}]]